地平线卫星 32星 (GORIZONT 32)

导读

GORIZONT 32(地平线32星)是独联体(CIS)下属俄罗斯航天部门研制发射的军用通信卫星,隶属于GORIZONT(地平线)系列卫星。该星于1996年5月25日发射,承接了Energiya-Buran计划的技术积累,主要承担战略通信与军事指挥任务,具备抗干扰和加密通信能力,是冷战后俄罗斯天基军事通信体系的重要组成部分,目前已在轨运行超30年。

基本信息
目录编号:
23880
目录名称:
GORIZONT 32
国际标识:
1996-034A
轨道中心:
EARTH
卫星名称:
地平线卫星 32星
卫星全名:
地平线卫星 32星 (GORIZONT 32)
卫星状态:
在轨 (已飞行11069 天)
发射日期:
1996-05-25 UTC
国别 :
俄罗斯(独联体) (CIS)
星等 :
--
该卫星已列入 空间交会检测服务 Space Conjunction Data Service (SCDS) ,当前飞行风险评估等级: 无高风险
轨道信息
数据来源 国际轨道数据 AOE轨道数据
星历时间 2026-09-14T00:09:30+0800
12小时前
查看轨道信息
2026-09-13T01:00:00+0800
1天前
查看轨道信息
半长轴 42190.258km 42190.511km
偏心率 0.000834 0.0008394
轨道倾角 14.379° 14.379°
近地点辐角 358.529° 359.837°
升交点赤经 354.300° 354.308°
平近点角 7.250° 17.923°
近地点 35776.934km 35776.959km
远地点 35847.308km 35847.789km
周期 1437.401分钟 1437.414分钟
每日圈数 1.001808 1.001799
详细信息
平衡模式:
三轴稳定
覆盖范围:
全球
运营商:
俄罗斯国家航天集团
运营商所在国:
俄罗斯
制造商(研发单位):
普里克拉德诺伊·梅哈尼基设计局
制造商所在国:
俄罗斯联邦
使用方式:
暂无
卫星简介
地平线卫星(Gorizont)(俄语:Горизонт,Horizon),是1978年至2000年间发射的一系列(共35颗)俄罗斯(前苏联)地球同步通信卫星。该计划的启动是为了开发一个卫星系统来中继信号使全球覆盖1980年的莫斯科奥运会。 最初的四颗卫星是为了这个唯一目的而发射的。 此后,Gorizont系统被集成到YesSSS统一卫星通信系统中,用于中继民用和军用通信。 从1988年起,这些卫星还被用于支持Okean计划。该卫星已退役。
2D轨道图
3D轨道图
轨道高度分析图
轨道倾角分析图
轨道综合分析图
查看轨道综合分析图
与全量物体交会距离演化趋势 订阅飞行安全评估服务
与全量物体交会风险概率演化趋势 订阅飞行安全评估服务